Location: Catacaguana
(10.4120°N, 66.7591°W)
Time: 04:53:00
(UTC+00:00)

Cosmos 1633 - Pass Details

Date: 27 May 2022
Orbit: 448 x 465 km, 82.5° (Epoch: 26 June)

Event Time Altitude Azimuth Distance (km) Brightness Sun altitude
Exits shadow 09:10:43 16° 280° (W) 1,274 4.2 -12.9°
Drops below altitude 10° 09:12:48 10° 317° (NW) 1,611 5.0 -12.4°
Sets 09:15:28 0° 339° (NNW) 2,488 6.2 -11.8°
